Dutch Harbor, AK

10:01 PM AKDT on April 23, 2017 (GMT -0800)
Unalaska

Weather History for PADU - November, 2011

Change the Weather History Date:

Sunday, November 20, 2011

  Actual Average Record
Temperature  
Mean Temperature 39 °F -  
Max Temperature 41 °F 41 °F 53 °F (2003)
Min Temperature 36 °F 25 °F -35 °F (1985)
Degree Days  
Heating Degree Days 26    
Moisture  
Dew Point 34 °F    
Average Humidity 81    
Maximum Humidity 93    
Minimum Humidity 73    
Precipitation  
Precipitation 0.38 in - - ()
Sea Level Pressure  
Sea Level Pressure 29.25 in    
Wind  
Wind Speed 15 mph (NW)    
Max Wind Speed 21 mph    
Max Gust Speed 32 mph    
Visibility 8 miles    
Events Rain    
Averages and records for this station are not official NWS values.
T = Trace of Precipitation, MM = Missing Value Source: NWS Daily Summary

Daily Weather History Graph

Daily Weather History Graph

Search for Another Location

Airport or City:

Trip Planner

Search our weather history database for the weather conditions in past years. The results will help you decide how hot, cold, wet, or windy it might be!

Date:

Astronomy

Nov. 20, 2011 Rise Set
Actual Time 9:42 AM AKST 6:00 PM AKST
Civil Twilight 9:02 AM AKST 6:40 PM AKST
Nautical Twilight 8:18 AM AKST 7:24 PM AKST
Astronomical Twilight 7:36 AM AKST 8:06 PM AKST
Moon 3:44 AM AKST (11/20) 3:32 PM AKST (11/20)
Length of Visible Light 9h 38m
Length of Day
8h 17m
Waning Crescent, 26% of the Moon is Illuminated
Nov 20
Waning Crescent
Nov 24
New
Dec 2
First Quarter
Dec 10
Full
Dec 17
Last Quarter

Hourly Weather History & Observations

Time (AKST) Temp. Windchill Dew Point Humidity Pressure Visibility Wind Dir Wind Speed Gust Speed Precip Events Conditions
12:58 AM 41.0 °F 32.5 °F 33.1 °F 73% 29.16 in 10.0 mi SSW 17.3 mph 32.2 mph 0.01 in Rain Light Rain
1:28 AM 39.2 °F 29.3 °F 33.8 °F 81% 29.14 in 3.0 mi WSW 20.7 mph 31.1 mph 0.01 in Rain Light Rain
1:42 AM 39.2 °F 30.8 °F 33.8 °F 81% 29.13 in 6.0 mi SSW 15.0 mph 29.9 mph 0.02 in Rain Light Rain
1:58 AM 39.9 °F 30.8 °F 34.0 °F 79% 29.15 in 6.0 mi WSW 18.4 mph 32.2 mph 0.03 in Rain Light Rain
2:58 AM 39.9 °F 32.5 °F 34.0 °F 79% 29.13 in 8.0 mi WSW 12.7 mph 24.2 mph 0.02 in Rain Light Rain
3:58 AM 39.9 °F 32.9 °F 34.0 °F 79% 29.11 in 6.0 mi WSW 11.5 mph 26.5 mph 0.03 in Rain Light Rain
4:07 AM 39.2 °F 33.0 °F 33.8 °F 81% 29.09 in 4.0 mi WSW 9.2 mph - 0.01 in Rain Light Rain
4:12 AM 39.2 °F - 33.8 °F 81% 29.09 in 5.0 mi Calm Calm - 0.01 in Rain Light Rain
4:58 AM 41.0 °F 32.2 °F 34.0 °F 76% 29.08 in 7.0 mi WSW 18.4 mph 24.2 mph 0.05 in Rain Light Rain
5:58 AM 39.9 °F 32.5 °F 34.0 °F 79% 29.05 in 5.0 mi SW 12.7 mph 21.9 mph 0.04 in Rain Light Rain
6:58 AM 41.0 °F 34.7 °F 34.0 °F 76% 29.02 in 10.0 mi SW 10.4 mph 23.0 mph 0.04 in Rain Light Rain
7:58 AM 41.0 °F 36.4 °F 36.0 °F 82% 29.01 in 10.0 mi WSW 6.9 mph - 0.04 in Rain Light Rain
8:58 AM 39.2 °F 32.5 °F 35.6 °F 87% 29.04 in 10.0 mi NW 10.4 mph - N/A Rain Light Rain
9:58 AM 41.0 °F 32.2 °F 36.0 °F 82% 29.11 in 8.0 mi NW 18.4 mph - 0.01 in Rain Light Rain
10:22 AM 41.0 °F 32.8 °F 35.6 °F 81% 29.10 in 4.0 mi WNW 16.1 mph - 0.01 in Rain Light Rain
10:34 AM 39.2 °F 30.8 °F 37.4 °F 93% 29.12 in 10.0 mi NW 15.0 mph - 0.02 in Rain Light Rain
10:58 AM 41.0 °F 31.6 °F 37.0 °F 86% 29.15 in 10.0 mi NNW 20.7 mph 27.6 mph 0.02 in   Overcast
11:58 AM 41.0 °F 32.5 °F 37.0 °F 86% 29.20 in 10.0 mi NNW 17.3 mph - 0.00 in   Overcast
12:58 PM 41.0 °F 31.6 °F 36.0 °F 82% 29.23 in 10.0 mi NNW 20.7 mph 25.3 mph N/A   Mostly Cloudy
1:58 PM 39.9 °F 30.2 °F 35.1 °F 83% 29.26 in 10.0 mi NW 20.7 mph 28.8 mph 0.00 in Rain Light Rain
2:58 PM 41.0 °F 32.5 °F 36.0 °F 82% 29.28 in 10.0 mi NNW 17.3 mph 21.9 mph 0.00 in   Overcast
3:58 PM 41.0 °F 33.5 °F 36.0 °F 82% 29.32 in 9.0 mi NE 13.8 mph 27.6 mph 0.00 in Rain Light Rain
4:58 PM 39.0 °F 32.3 °F 35.1 °F 86% 29.36 in 6.0 mi NE 10.4 mph 31.1 mph 0.04 in Rain Light Rain
5:32 PM 39.2 °F 35.9 °F 35.6 °F 87% 29.37 in 10.0 mi Variable 4.6 mph 21.9 mph 0.02 in   Mostly Cloudy
5:58 PM 41.0 °F 32.8 °F 36.0 °F 82% 29.39 in 10.0 mi North 16.1 mph 21.9 mph 0.02 in   Overcast
7:54 PM 37.4 °F 28.2 °F 33.8 °F 87% 29.45 in 9.0 mi NE 16.1 mph 29.9 mph 0.02 in Rain Light Rain
7:58 PM 37.9 °F 30.0 °F 33.1 °F 83% 29.47 in 10.0 mi North 12.7 mph 29.9 mph 0.03 in Rain Light Rain
8:17 PM 39.2 °F 31.6 °F 33.8 °F 81% 29.46 in 10.0 mi NNW 12.7 mph 18.4 mph 0.00 in Rain Light Rain
8:58 PM 39.0 °F 32.8 °F 32.0 °F 76% 29.49 in 10.0 mi NNE 9.2 mph 23.0 mph 0.00 in   Overcast
9:09 PM 37.4 °F 30.3 °F 33.8 °F 87% 29.48 in 10.0 mi ENE 10.4 mph 25.3 mph N/A   Overcast
9:28 PM 37.4 °F 27.8 °F 32.0 °F 81% 29.48 in 10.0 mi ENE 17.3 mph 29.9 mph 0.00 in Rain Light Rain
9:58 PM 37.9 °F 32.7 °F 30.0 °F 73% 29.52 in 10.0 mi Variable 6.9 mph 25.3 mph 0.00 in   Overcast
10:58 PM 37.0 °F 27.7 °F 30.0 °F 76% 29.54 in 7.0 mi North 16.1 mph 23.0 mph 0.00 in Rain Light Rain
11:58 PM 36.0 °F 27.1 °F 30.0 °F 79% 29.56 in 8.0 mi NNW 13.8 mph 27.6 mph 0.00 in Rain Light Rain